[[{"header":{"parameterUnit":"m.s-1","parameterCategory":1,"la1":30.2992,"la2":30.254,"lo1":-89.0895,"lo2":-89.0443,"dy":0.0025,"dx":0.0025,"nx":19,"ny":19,"refTime":"2026-04-17T21:00:00:Z","depth":0,"parameterNumber":2,"parameterNumberName":"U-component_of_WINDS"},"data":[0,0,0,3.5588,3.5596,3.5961,3.5963,3.6423,3.6427,0,0,0,0,0,0,0,0,0,0,0,3.547,3.5473,3.5588,3.5596,3.5961,3.5963,3.6422,3.6427,0,0,0,0,0,0,0,0,0,0,0,3.5469,3.5472,3.5476,3.5598,3.5961,3.5963,3.6421,3.615,0,0,0,0,0,0,0,0,0,0,3.5797,3.5676,3.5471,3.5476,3.56,3.596,3.5963,3.6137,3.6167,3.6253,0,3.6322,0,3.6382,3.6457,3.6459,0,0,0,3.5605,3.5651,3.5759,3.5476,3.5603,3.596,3.5799,3.6154,3.6187,3.6293,3.6329,3.6347,3.6389,3.646,3.6462,3.6925,3.6927,0,0,3.5585,3.5531,3.5735,3.578,3.5717,3.5787,3.581,3.6174,3.6212,3.6331,3.6358,3.6397,3.6463,3.6466,3.6923,3.6926,0,0,0,3.5521,3.5517,3.5616,3.5761,3.5827,3.5798,3.5824,3.6196,3.6233,3.6363,3.6402,3.6465,3.6471,3.6922,3.6924,3.696,0,0,0,3.5509,3.548,3.5606,3.5577,3.5819,3.6015,3.5837,3.6207,3.625,3.64,3.6466,3.6475,3.692,3.6923,3.6955,3.6987,0,0,0,3.545,3.5473,3.5522,3.5574,3.5728,3.601,3.6068,3.6218,3.6274,3.6459,3.6476,3.6918,3.6922,3.6951,3.698,3.7096,0,0,0,3.5372,3.5548,3.5522,3.5735,3.5725,3.6027,3.6066,3.6295,3.6457,3.6468,3.692,3.6924,3.6949,3.6975,3.7091,3.7186,3.7219,0,0,3.5564,3.5569,3.5699,3.5687,3.598,3.5976,3.6279,3.6479,3.6547,3.6797,3.6809,3.6957,3.6979,3.7095,3.7422,3.7448,0,0,0,3.5743,3.5835,3.5925,3.6076,3.6232,3.6372,3.6531,3.6607,3.6822,3.6662,3.7031,3.7046,3.7116,3.7165,3.7187,3.7253,3.6943,3.6942,3.6942,3.5939,3.6016,3.6238,3.6361,3.6508,3.6673,3.6802,3.6933,3.6967,3.7054,3.7129,3.7317,3.7371,3.7389,3.7457,3.7183,3.7183,3.7184,3.7184,3.6231,3.6377,3.6421,3.6651,3.6735,3.6932,3.7102,3.712,3.732,3.7266,3.7332,3.7267,3.7415,3.7479,3.7187,3.7187,3.7186,3.7186,3.7186,3.637,3.6453,3.6541,3.6772,3.6943,3.7064,3.7254,3.7323,3.739,3.7455,3.7545,3.7545,3.7556,3.7492,3.7493,3.7494,3.7494,3.7495,3.7495,3.6479,3.6578,3.6727,3.6912,3.7022,3.7175,3.7348,3.746,3.7602,3.7638,3.7639,3.7669,3.7413,3.7349,3.7506,3.7504,3.7503,3.7502,3.7501,3.675,3.6701,3.6931,3.7041,3.7268,3.7437,3.7523,3.7747,3.785,3.7943,3.7961,3.7759,3.7769,3.7752,3.77,3.7939,3.7939,3.7939,3.7939,3.6869,3.6881,3.7136,3.7308,3.7485,3.7588,3.7856,3.7995,3.8132,3.8202,3.8178,3.8114,3.8093,3.8117,3.8092,3.8044,3.8366,3.8366,3.8366,3.7042,3.7075,3.7285,3.7415,3.76,3.7758,3.8014,3.8216,3.8361,3.8385,3.826,3.8242,3.814,3.8102,3.8122,3.8081,3.7996,0,0]},{"header":{"parameterUnit":"m.s-1","parameterCategory":1,"la1":30.2992,"la2":30.254,"lo1":-89.0895,"lo2":-89.0443,"dy":0.0025,"dx":0.0025,"nx":19,"ny":19,"refTime":"2026-04-17T21:00:00:Z","depth":0,"parameterNumber":3,"parameterNumberName":"V-component_of_WINDS"},"data":[0,0,0,-6.3117,-6.311,-6.2768,-6.2767,-6.2362,-6.2359,0,0,0,0,0,0,0,0,0,0,0,-6.3251,-6.325,-6.3117,-6.311,-6.2769,-6.2767,-6.2362,-6.2359,0,0,0,0,0,0,0,0,0,0,0,-6.3252,-6.325,-6.3248,-6.3109,-6.2769,-6.2766,-6.2363,-6.2606,0,0,0,0,0,0,0,0,0,0,-6.2931,-6.3091,-6.325,-6.3248,-6.3107,-6.2769,-6.2766,-6.2617,-6.2591,-6.2535,0,-6.2506,0,-6.2428,-6.2335,-6.2334,0,0,0,-6.3081,-6.3113,-6.2993,-6.3248,-6.3104,-6.277,-6.2914,-6.2602,-6.2573,-6.2501,-6.25,-6.2483,-6.2421,-6.2333,-6.2331,-6.2136,-6.2137,0,0,-6.31,-6.3203,-6.3014,-6.2976,-6.3046,-6.2926,-6.2904,-6.2584,-6.2584,-6.2498,-6.2473,-6.2414,-6.233,-6.2328,-6.2136,-6.2136,0,0,0,-6.3173,-6.3218,-6.3104,-6.2994,-6.2931,-6.2916,-6.2892,-6.2598,-6.2553,-6.2468,-6.241,-6.2328,-6.2324,-6.2135,-6.2136,-6.2265,0,0,0,-6.3183,-6.3261,-6.3114,-6.3174,-6.2938,-6.2763,-6.2915,-6.2575,-6.2536,-6.2412,-6.2328,-6.2321,-6.2135,-6.2136,-6.226,-6.2305,0,0,0,-6.3261,-6.3269,-6.3233,-6.318,-6.3039,-6.2766,-6.2701,-6.2565,-6.2501,-6.2334,-6.232,-6.2134,-6.2136,-6.2256,-6.2298,-6.2286,0,0,0,-6.3371,-6.3344,-6.3237,-6.3183,-6.3043,-6.2853,-6.2702,-6.2551,-6.2423,-6.2326,-6.2135,-6.2136,-6.2254,-6.2293,-6.2283,-6.2295,-6.2312,0,0,-6.3394,-6.3351,-6.331,-6.3205,-6.3063,-6.2896,-6.2766,-6.2542,-6.2423,-6.2235,-6.2229,-6.2262,-6.2297,-6.2285,-6.2367,-6.2382,0,0,0,-6.3352,-6.3325,-6.3265,-6.3156,-6.2994,-6.2855,-6.2644,-6.2561,-6.2399,-6.2354,-6.2251,-6.2268,-6.2257,-6.2257,-6.2269,-6.2251,-6.2142,-6.2142,-6.2142,-6.353,-6.3392,-6.3316,-6.3138,-6.3032,-6.2818,-6.2715,-6.2564,-6.2445,-6.2424,-6.2366,-6.2435,-6.2441,-6.2449,-6.2432,-6.2363,-6.2363,-6.2363,-6.2364,-6.355,-6.3489,-6.3344,-6.322,-6.3069,-6.2956,-6.2746,-6.2668,-6.2534,-6.2466,-6.2448,-6.2386,-6.2469,-6.2446,-6.2372,-6.237,-6.2369,-6.2369,-6.2368,-6.365,-6.3597,-6.3507,-6.3336,-6.3217,-6.3031,-6.2915,-6.2778,-6.2646,-6.2629,-6.2553,-6.255,-6.2528,-6.2603,-6.2604,-6.2604,-6.2604,-6.2604,-6.2604,-6.379,-6.3684,-6.3609,-6.3441,-6.3353,-6.3219,-6.3005,-6.291,-6.2768,-6.2677,-6.2675,-6.2558,-6.2506,-6.2496,-6.2607,-6.2607,-6.2606,-6.2606,-6.2606,-6.386,-6.3824,-6.371,-6.3625,-6.3413,-6.3303,-6.3134,-6.2954,-6.2854,-6.2799,-6.2686,-6.2672,-6.2612,-6.2601,-6.2591,-6.272,-6.272,-6.272,-6.272,-6.3944,-6.3905,-6.3759,-6.3631,-6.3487,-6.3325,-6.3188,-6.302,-6.2836,-6.2764,-6.2725,-6.2701,-6.2697,-6.2638,-6.2627,-6.2615,-6.2747,-6.2747,-6.2747,-6.3978,-6.392,-6.3837,-6.3673,-6.3498,-6.3348,-6.3214,-6.3062,-6.2844,-6.2745,-6.2704,-6.2702,-6.2661,-6.2655,-6.2554,-6.254,-6.2515,0,0]}]]